{"data":{"norad_id":69996,"intl_designator":"2026-159X","name":"STARLINK-38085","alt_names":[],"object_type":"PAYLOAD","status":"ACTIVE","operator":null,"country":"US","launch_date":"2026-07-11","launch_site_code":"AFWTR","launch_vehicle":null,"mission":null,"orbit_class":"UNKNOWN","rcs_meters":null,"size_class":null,"mass_kg":null,"dimensions":null,"purposes":["comms"],"wikipedia_slug":null,"has_3d_model":false,"image_url":null,"decayed_at":null,"tle_current":{"epoch":"2026-09-19T18:59:41.029440Z","epoch_age_seconds":79022,"freshness":"FRESH","line1":"1 69996U 26159X   26262.79144710  .00036263  00000+0  66462-3 0  9999","line2":"2 69996  97.2855 104.5438 0001880 100.9880 259.1583 15.49219428 12332","mean_motion":15.49219428,"eccentricity":0.000188,"inclination_deg":97.2855,"raan_deg":104.5438,"arg_perigee_deg":100.988,"mean_anomaly_deg":259.1583,"bstar":0.00066462,"rev_number":1233,"period_min":92.950034964318,"perigee_km":417.73040233339,"apogee_km":420.28612895327,"semimajor_km":6797.1452656433,"source":"CELESTRAK","updated_at":"2026-09-20T09:00:44.332319Z"}}}